Location: Bambrugge
(50.9212°N, 3.9299°E)
Time: 20:36:09
(UTC+00:00)

SAR-Lupe-1 - Pass Details

Date: 23 May 2024
Orbit: 479 x 482 km, 98.1° (Epoch: 04 May)

Event Time Altitude Azimuth Distance (km) Brightness Sun altitude
Rises 02:31:29 0° 17° (NNE) 2,554 9.1 -9.2°
Reaches altitude 10° 02:33:35 10° 21° (NNE) 1,669 8.1 -9.0°
Maximum altitude 02:37:08 60° 102° (ESE) 555 4.5 -8.6°
Drops below altitude 10° 02:40:39 10° 184° (S) 1,655 6.3 -8.3°
Enters shadow 02:41:25 - 185° (S) 1,978 6.7 -8.2°
